This demonstration page uses our WeatherBlox Daily Observations layout. Learn more.

Left ArrowRight Arrow

41.86663, -103.66717

Hourly Observations for September 18, 2018

Temp ( °F °C ) Dew Point ( °F °C ) Humidity (%) Winds ( mph kmh ) Pressure ( in mb ) Visibility ( mi km ) Precip ( " mm )
12:53 am 00:53 Clear 63 17.2 60 15.6 90 90 E 7 11 29.83 1010 10 16 N/A
1:53 am 01:53 Partly Cloudy 63 17.2 58 14.4 84 84 NE 12 19 29.80 1009 10 16 N/A
2:53 am 02:53 Mostly Clear 60 15.6 57 13.9 90 90 SSE 5 7 29.83 1010 10 16 N/A
3:53 am 03:53 Mostly Clear 59 15 57 13.9 93 93 N 8 13 29.84 1010 10 16 N/A
4:53 am 04:53 Mostly Clear 59 15 57 13.9 93 93 NE 13 20 29.86 1011 10 16 N/A
5:53 am 05:53 Clear 58 14.4 58 14.4 100 100 ENE 7 11 29.85 1011 10 16 N/A
6:19 am 06:19 Mostly Clear 59 15 58 14.4 96 96 N N/A 29.88 1012 10 16 N/A
6:53 am 06:53 Partly Cloudy 58 14.4 58 14.4 100 100 WNW 5 7 29.91 1013 10 16 N/A
7:07 am 07:07 Mostly Cloudy 58 14.4 58 14.4 100 100 NNW 6 9 29.91 1013 10 16 N/A
7:53 am 07:53 Cloudy 61 16.1 59 15 93 93 NNE 9 15 29.91 1013 10 16 N/A
8:53 am 08:53 Cloudy 62 16.7 59 15 90 90 NNE 7 11 29.91 1013 10 16 N/A
9:08 am 09:08 Cloudy 63 17 59 15 88 88 N 5 7 29.88 1012 10 16 N/A
9:53 am 09:53 Cloudy 65 18.3 59 15 81 81 NNE 6 9 29.93 1014 10 16 N/A
10:20 am 10:20 Partly Cloudy 68 20 59 15 73 73 VRB 5 7 29.88 1012 10 16 N/A
10:33 am 10:33 Mostly Cloudy 67 19.4 59 15 76 76 NE 7 11 29.88 1012 10 16 N/A
10:44 am 10:44 Partly Cloudy 68 20 59 15 73 73 NE 5 7 29.85 1011 10 16 N/A
10:51 am 10:51 Mostly Cloudy 70 21 59 15 69 69 VRB 3 6 29.83 1010 10 16 N/A
10:53 am 10:53 Mostly Cloudy 70 21.1 60 15.6 71 71 NE 8 13 29.92 1013 10 16 N/A
11:01 am 11:01 Mostly Sunny 69 20.6 59 15 70 70 VRB 6 9 29.83 1010 10 16 N/A
11:53 am 11:53 Sunny 72 22.2 59 15 64 64 undefined N/A 29.89 1012 10 16 N/A
12:53 pm 12:53 Sunny 75 23.9 60 15.6 60 60 SE 7 11 29.86 1011 10 16 N/A
1:53 pm 13:53 Sunny 80 26.7 60 15.6 51 51 ESE 9 15 29.82 1010 10 16 N/A
2:53 pm 14:53 Sunny 81 27.2 61 16.1 51 51 ESE 15 24 29.79 1009 10 16 N/A
3:53 pm 15:53 Sunny 78 25.6 61 16.1 56 56 ESE 17 28 29.77 1008 10 16 N/A
4:53 pm 16:53 Mostly Sunny 79 26.1 62 16.7 56 56 ESE 16 26 29.76 1008 10 16 N/A
5:53 pm 17:53 Mostly Sunny 76 24.4 63 17.2 64 64 E 12 19 29.73 1007 10 16 N/A
6:41 pm 18:41 Mostly Cloudy with Thunderstorms 72 22.2 66 18.9 82 82 E 13 20 29.65 1004 7 11 0.02 0.51
6:53 pm 18:53 Partly Cloudy 72 22.2 66 18.9 82 82 ESE 10 17 29.76 1008 10 16 0.02 0.51
7:37 pm 19:37 Mostly Clear with Nearby Thunderstorms 74 23.3 63 17.2 69 69 N 7 11 29.65 1004 10 16 N/A
7:53 pm 19:53 Mostly Cloudy with Nearby Thunderstorms 72 22.2 64 17.8 76 76 NE 10 17 29.77 1008 10 16 N/A
8:04 pm 20:04 Mostly Cloudy 73 23 63 17 69 69 E 10 17 29.68 1005 10 16 N/A
8:53 pm 20:53 Clear 72 22.2 61 16.1 68 68 E 12 19 29.78 1009 10 16 N/A
9:53 pm 21:53 Clear 71 21.7 60 15.6 68 68 E 13 20 29.79 1009 10 16 N/A
10:53 pm 22:53 Clear 68 20 63 17.2 84 84 E 15 24 29.78 1008 10 16 N/A
11:53 pm 23:53 Clear 65 18.3 63 17.2 93 93 E 12 19 29.76 1008 10 16 N/A

Powered by AerisWeather